Change the Weather History Date:

Wednesday, July 3, 2013

  Actual Average Record
Temperature  
Mean Temperature 58 °F -  
Max Temperature 73 °F 77 °F 96 °F (2012)
Min Temperature 42 °F 62 °F 41 °F (2014)
Degree Days  
Heating Degree Days 8    
Growing Degree Days 8 (Base 50)    
Moisture  
Dew Point 50 °F    
Average Humidity 94    
Maximum Humidity 100    
Minimum Humidity 57    
Precipitation  
Precipitation 0.00 in - - ()
Sea Level Pressure  
Sea Level Pressure 30.08 in    
Wind  
Wind Speed 2 mph (ESE)    
Max Wind Speed 9 mph    
Max Gust Speed -    
Visibility 5 miles    
Events Fog    
Averages and records for this station are not official NWS values.
T = Trace of Precipitation, MM = Missing Value Source: NWS Daily Summary

Daily Weather History Graph

Daily Weather History Graph

Search for Another Location

Airport or City:

Trip Planner

Search our weather history database for the weather conditions in past years. The results will help you decide how hot, cold, wet, or windy it might be!

Date:

Astronomy

Jul. 03, 2013 Rise Set
Actual Time 5:23 AM CDT 8:46 PM CDT
Civil Twilight 4:47 AM CDT 9:22 PM CDT
Nautical Twilight 4:00 AM CDT 10:09 PM CDT
Astronomical Twilight 3:01 AM CDT 11:08 PM CDT
Moon 2:05 AM CDT (7/3) 4:54 PM CDT (7/3)
Length of Visible Light 16h 35m
Length of Day
15h 23m
Waning Crescent, 18% of the Moon is Illuminated
Jul 3
Waning Crescent
Jul 8
New
Jul 15
First Quarter
Jul 22
Full
Jul 29
Last Quarter

Hourly Weather History & Observations

Time (CDT) Temp. Windchill Dew Point Humidity Pressure Visibility Wind Dir Wind Speed Gust Speed Precip Events Conditions
12:58 AM 50.5 °F - 50.5 °F 100% 30.11 in 10.0 mi Calm Calm - N/A   Clear
1:13 AM 48.2 °F - 48.2 °F 100% 30.10 in 2.0 mi Calm Calm - N/A   Clear
1:18 AM 46.4 °F - 46.4 °F 100% 30.10 in 0.8 mi Calm Calm - N/A   Clear
1:23 AM 46.4 °F - 46.4 °F 100% 30.10 in 0.5 mi Calm Calm - N/A Fog Fog
1:28 AM 48.2 °F - 48.2 °F 100% 30.10 in 0.8 mi ESE 2.3 mph - N/A   Clear
1:33 AM 48.2 °F - 48.2 °F 100% 30.10 in 1.2 mi Calm Calm - N/A   Clear
1:38 AM 48.2 °F - 48.2 °F 100% 30.10 in 5.0 mi Calm Calm - N/A   Clear
1:43 AM 48.2 °F - 48.2 °F 100% 30.10 in 10.0 mi SSE 3.5 mph - N/A   Clear
1:58 AM 48.2 °F - 48.2 °F 100% 30.11 in 9.0 mi ESE 2.3 mph - N/A   Clear
2:03 AM 46.4 °F - 46.4 °F 100% 30.09 in 5.0 mi ESE 2.3 mph - N/A   Clear
2:08 AM 46.4 °F 45.2 °F 46.4 °F 100% 30.09 in 2.5 mi ESE 3.5 mph - N/A   Clear
2:13 AM 46.4 °F 45.2 °F 46.4 °F 100% 30.09 in 1.8 mi ESE 3.5 mph - N/A   Clear
2:18 AM 46.4 °F 45.2 °F 46.4 °F 100% 30.09 in 0.5 mi ESE 3.5 mph - N/A Fog Fog
2:23 AM 44.6 °F 43.1 °F 44.6 °F 100% 30.09 in 0.2 mi ESE 3.5 mph - N/A Fog Fog
2:28 AM 44.6 °F 43.1 °F 44.6 °F 100% 30.09 in 0.5 mi East 3.5 mph - N/A Fog Fog
2:33 AM 44.6 °F 43.1 °F 44.6 °F 100% 30.09 in 1.0 mi East 3.5 mph - N/A   Clear
2:38 AM 44.6 °F 43.1 °F 44.6 °F 100% 30.09 in 1.2 mi East 3.5 mph - N/A   Clear
2:43 AM 46.4 °F - 46.4 °F 100% 30.08 in 1.0 mi ESE 1.2 mph - N/A   Clear
2:48 AM 46.4 °F - 46.4 °F 100% 30.08 in 1.0 mi ESE 2.3 mph - N/A   Clear
2:53 AM 46.4 °F - 46.4 °F 100% 30.08 in 1.5 mi East 1.2 mph - N/A   Clear
2:58 AM 46.4 °F - 46.4 °F 100% 30.09 in 4.0 mi Calm Calm - N/A   Clear
3:03 AM 44.6 °F - 44.6 °F 100% 30.08 in 10.0 mi Calm Calm - N/A   Clear
3:08 AM 44.6 °F - 44.6 °F 100% 30.08 in 7.0 mi Calm Calm - N/A   Clear
3:18 AM 44.6 °F - 44.6 °F 100% 30.08 in 10.0 mi Calm Calm - N/A   Clear
3:28 AM 44.6 °F - 44.6 °F 100% 30.08 in 2.5 mi Calm Calm - N/A   Clear
3:33 AM 42.8 °F - 42.8 °F 100% 30.08 in 0.8 mi Calm Calm - N/A   Clear
3:38 AM 42.8 °F - 42.8 °F 100% 30.08 in 0.5 mi Calm Calm - N/A Fog Fog
3:43 AM 42.8 °F - 42.8 °F 100% 30.08 in 0.2 mi Calm Calm - N/A Fog Fog
3:48 AM 42.8 °F - 42.8 °F 100% 30.08 in 0.5 mi Calm Calm - N/A Fog Fog
3:58 AM 42.4 °F - 42.4 °F 100% 30.08 in 0.5 mi Calm Calm - N/A Fog Fog
4:03 AM 42.8 °F - 42.8 °F 100% 30.08 in 0.8 mi Calm Calm - N/A   Clear
4:08 AM 44.6 °F - 44.6 °F 100% 30.08 in 1.5 mi Calm Calm - N/A   Clear
4:13 AM 42.8 °F - 42.8 °F 100% 30.08 in 2.0 mi Calm Calm - N/A   Clear
4:18 AM 42.8 °F - 42.8 °F 100% 30.08 in 3.0 mi Calm Calm - N/A   Partly Cloudy
4:28 AM 42.8 °F - 42.8 °F 100% 30.08 in 0.8 mi Calm Calm - N/A   Partly Cloudy
4:33 AM 42.8 °F - 42.8 °F 100% 30.08 in 0.5 mi East 1.2 mph - N/A Fog Fog
4:38 AM 42.8 °F - 42.8 °F 100% 30.08 in 0.8 mi Calm Calm - N/A   Scattered Clouds
4:43 AM 44.6 °F - 44.6 °F 100% 30.08 in 1.5 mi Calm Calm - N/A   Scattered Clouds
4:48 AM 44.6 °F - 44.6 °F 100% 30.08 in 9.0 mi Calm Calm - N/A   Mostly Cloudy
4:58 AM 44.8 °F - 44.8 °F 100% 30.09 in 10.0 mi Calm Calm - N/A   Mostly Cloudy
5:28 AM 44.6 °F - 44.6 °F 100% 30.08 in 2.5 mi Calm Calm - N/A   Overcast
5:33 AM 44.6 °F - 44.6 °F 100% 30.08 in 1.8 mi Calm Calm - N/A   Overcast
5:38 AM 44.6 °F - 44.6 °F 100% 30.09 in 2.0 mi Calm Calm - N/A   Overcast
5:43 AM 46.4 °F - 46.4 °F 100% 30.09 in 1.8 mi Calm Calm - N/A   Overcast
5:48 AM 46.4 °F - 46.4 °F 100% 30.09 in 1.0 mi NW 2.3 mph - N/A   Overcast
5:53 AM 46.4 °F - 46.4 °F 100% 30.09 in 1.0 mi Calm Calm - N/A   Overcast
5:58 AM 46.4 °F - 46.4 °F 100% 30.10 in 1.8 mi Calm Calm - N/A   Overcast
6:03 AM 48.2 °F - 48.2 °F 100% 30.10 in 10.0 mi Calm Calm - N/A   Overcast
6:58 AM 53.6 °F - 53.6 °F 100% 30.12 in 10.0 mi SE 3.5 mph - N/A   Mostly Cloudy
7:58 AM 57.2 °F - 55.4 °F 94% 30.12 in 10.0 mi Calm Calm - N/A   Mostly Cloudy
8:58 AM 60.8 °F - 57.2 °F 88% 30.13 in 10.0 mi ESE 1.2 mph - N/A   Mostly Cloudy
9:58 AM 66.2 °F - 51.8 °F 60% 30.12 in 10.0 mi Variable 3.5 mph - N/A   Partly Cloudy
10:58 AM 68.0 °F - 53.6 °F 60% 30.11 in 10.0 mi Variable 1.2 mph - N/A   Mostly Cloudy
11:58 AM 71.6 °F - 55.4 °F 57% 30.11 in 10.0 mi Variable 1.2 mph - N/A   Mostly Cloudy
12:58 PM 71.6 °F - 56.8 °F 60% 30.10 in 10.0 mi Variable 3.5 mph - N/A   Mostly Cloudy
1:58 PM 71.6 °F - 57.2 °F 60% 30.08 in 10.0 mi East 9.2 mph - N/A   Mostly Cloudy
2:58 PM 69.8 °F - 59.0 °F 68% 30.08 in 10.0 mi East 5.8 mph - N/A   Mostly Cloudy
3:58 PM 70.5 °F - 59.9 °F 69% 30.07 in 10.0 mi East 4.6 mph - N/A   Mostly Cloudy
4:58 PM 73.2 °F - 59.7 °F 63% 30.06 in 10.0 mi ESE 8.1 mph - N/A   Partly Cloudy
5:58 PM 71.8 °F - 59.7 °F 66% 30.05 in 10.0 mi ESE 4.6 mph - N/A   Mostly Cloudy
6:58 PM 71.1 °F - 59.9 °F 68% 30.04 in 10.0 mi East 5.8 mph - N/A   Clear
7:58 PM 70.3 °F - 59.7 °F 69% 30.04 in 10.0 mi ESE 6.9 mph - N/A   Mostly Cloudy
8:58 PM 67.3 °F - 59.5 °F 76% 30.03 in 10.0 mi SE 4.6 mph - N/A   Partly Cloudy
9:58 PM 59.7 °F - 59.4 °F 99% 30.05 in 10.0 mi East 2.3 mph - N/A   Clear
10:33 PM 57.2 °F - 57.2 °F 100% 30.04 in 4.0 mi SE 2.3 mph - N/A   Clear
10:43 PM 57.2 °F - 57.2 °F 100% 30.04 in 10.0 mi SE 3.5 mph - N/A   Clear
10:53 PM 57.2 °F - 57.2 °F 100% 30.04 in 7.0 mi ESE 3.5 mph - N/A   Clear
10:58 PM 57.2 °F - 57.2 °F 100% 30.05 in 2.0 mi ESE 2.3 mph - N/A   Clear
11:03 PM 57.2 °F - 57.2 °F 100% 30.05 in 1.5 mi East 2.3 mph - N/A   Clear
11:08 PM 57.2 °F - 57.2 °F 100% 30.04 in 2.0 mi East 2.3 mph - N/A   Clear
11:13 PM 57.2 °F - 57.2 °F 100% 30.04 in 3.0 mi ESE 4.6 mph - N/A   Clear
11:18 PM 57.2 °F - 57.2 °F 100% 30.04 in 7.0 mi SE 3.5 mph - N/A   Clear
11:23 PM 57.2 °F - 57.2 °F 100% 30.04 in 10.0 mi SE 3.5 mph - N/A   Clear
11:28 PM 55.4 °F - 55.4 °F 100% 30.04 in 9.0 mi ESE 3.5 mph - N/A   Clear
11:38 PM 55.4 °F - 55.4 °F 100% 30.04 in 10.0 mi SE 4.6 mph - N/A   Clear
11:58 PM 55.9 °F - 55.9 °F 100% 30.05 in 10.0 mi SSE 5.8 mph - N/A   Clear